EW2839 Weather Reports


time (UTC)temp
F
wind
direction
speed
knots
gust
knots
rain 1hr
in
rain 24hr
in
rain mn
in
humidity
%
barometer
mb
20260507161404 57 298 0.0 5.2 0.00 0.00 0.00 59 1021.0
20260507160904 57 313 0.9 5.2 0.00 0.00 0.00 58 1021.0
20260507160404 57 351 0.9 5.2 0.00 0.00 0.00 61 1021.0
20260507153903 56 68 0.0 0.9 0.00 0.00 0.00 61 1021.0
20260507153404 56 309 0.9 2.6 0.00 0.00 0.00 60 1021.0
20260507151904 55 45 2.6 4.3 0.00 0.00 0.00 61 1021.0
20260507151404 55 302 0.0 2.6 0.00 0.00 0.00 62 1021.0
20260507150904 55 352 0.9 4.3 0.00 0.00 0.00 61 1021.0
20260507150403 55 68 0.0 5.2 0.00 0.00 0.00 62 1021.0
20260507144903 55 319 0.0 0.0 0.00 0.00 0.00 63 1021.0
20260507144403 55 338 2.6 4.3 0.00 0.00 0.00 61 1021.0
20260507143903 55 346 0.0 0.0 0.00 0.00 0.00 63 1021.0
20260507143404 55 45 0.0 5.2 0.00 0.00 0.00 63 1021.0
20260507141904 55 68 0.0 1.7 0.00 0.00 0.00 63 1021.0
20260507141405 55 68 0.0 0.0 0.00 0.00 0.00 64 1021.0
20260507140904 55 45 0.0 0.0 0.00 0.00 0.00 64 1021.0
20260507140403 55 0 0.0 1.7 0.00 0.00 0.00 64 1021.0
20260507134904 55 316 0.9 2.6 0.00 0.00 0.00 63 1020.0
20260507134404 55 112 0.0 0.0 0.00 0.00 0.00 64 1020.0
20260507133903 55 356 0.9 1.7 0.00 0.00 0.00 64 1020.0
20260507133404 55 22 0.0 0.9 0.00 0.00 0.00 64 1020.0
20260507130904 55 11 0.0 0.0 0.00 0.00 0.00 63 1021.0
20260507130404 54 349 1.7 4.3 0.00 0.00 0.00 62 1021.0
20260507124904 55 45 0.0 1.7 0.00 0.00 0.00 63 1020.0
20260507124404 55 17 1.7 4.3 0.00 0.00 0.00 63 1020.0
20260507123904 55 45 0.0 0.0 0.00 0.00 0.00 64 1020.0
20260507123404 55 45 0.0 0.9 0.00 0.00 0.00 64 1020.0
20260507121904 55 18 0.9 0.9 0.00 0.00 0.00 65 1021.0
20260507120904 55 22 0.0 0.0 0.00 0.00 0.00 64 1021.0
20260507120405 55 271 0.0 1.7 0.00 0.00 0.00 65 1021.0
20260507114904 55 0 0.0 0.0 0.00 0.00 0.00 65 1021.0
20260507114404 55 315 0.0 0.9 0.00 0.00 0.00 65 1021.0
20260507113904 55 22 0.0 0.0 0.00 0.00 0.00 65 1021.0
20260507113404 55 351 0.0 2.6 0.00 0.00 0.00 65 1021.0
20260507110903 55 296 1.7 4.3 0.00 0.00 0.00 64 1021.0
20260507110403 56 327 0.9 1.7 0.00 0.00 0.00 65 1021.0
20260507104403 55 7 0.9 2.6 0.00 0.00 0.00 64 1021.0
20260507103903 56 270 0.9 2.6 0.00 0.00 0.00 65 1021.0
20260507103403 56 304 0.9 4.3 0.00 0.00 0.00 65 1021.0
20260507101903 56 322 2.6 5.2 0.00 0.00 0.00 64 1021.0
20260507101404 56 342 0.9 4.3 0.00 0.00 0.00 64 1021.0
20260507100903 56 303 0.9 4.3 0.00 0.00 0.00 65 1021.0
20260507100404 56 303 0.0 2.6 0.00 0.00 0.00 65 1021.0
20260507094403 56 321 0.0 2.6 0.00 0.00 0.00 66 1021.0
20260507093904 56 112 0.0 1.7 0.00 0.00 0.00 66 1021.0
20260507091903 56 12 0.9 1.7 0.00 0.00 0.00 66 1021.0
20260507091403 56 297 1.7 4.3 0.00 0.00 0.00 65 1021.0
20260507090904 56 307 1.7 4.3 0.00 0.00 0.00 66 1021.0
20260507090404 56 315 0.9 1.7 0.00 0.00 0.00 66 1021.0
20260507084903 56 0 0.0 2.6 0.00 0.00 0.00 66 1021.0
20260507084404 57 327 0.9 2.6 0.00 0.00 0.00 67 1021.0
20260507083404 57 3 0.0 0.0 0.00 0.00 0.00 67 1021.0
20260507081904 57 25 0.0 0.0 0.00 0.00 0.00 67 1021.0
20260507081404 57 307 0.0 2.6 0.00 0.00 0.00 67 1021.0
20260507080905 57 0 0.9 1.7 0.00 0.00 0.00 67 1021.0
20260507080405 57 22 0.0 2.6 0.00 0.00 0.00 66 1021.0
20260507074904 57 330 0.0 0.0 0.00 0.00 0.00 66 1021.0
20260507074404 57 320 0.0 1.7 0.00 0.00 0.00 66 1021.0
20260507073905 57 315 0.0 0.0 0.00 0.00 0.00 66 1021.0
20260507073404 57 22 0.0 0.0 0.00 0.00 0.00 66 1021.0
20260507071904 57 45 0.0 4.3 0.00 0.00 0.00 66 1021.0
20260507071404 57 316 2.6 4.3 0.00 0.00 0.00 65 1021.0
20260507070904 57 29 0.9 2.6 0.00 0.00 0.00 66 1021.0
20260507070404 57 0 0.9 5.2 0.00 0.00 0.00 66 1021.0
20260507064904 57 300 0.0 2.6 0.00 0.00 0.00 66 1021.0
20260507064405 57 306 0.9 5.2 0.00 0.00 0.00 66 1021.0
20260507063904 57 328 0.9 5.2 0.00 0.00 0.00 66 1021.0
20260507063404 57 301 0.9 4.3 0.00 0.00 0.00 66 1021.0
20260507061905 57 287 1.7 2.6 0.00 0.00 0.00 65 1021.0
20260507060405 58 299 0.0 2.6 0.00 0.00 0.00 66 1021.0
20260507031404 61 300 4.3 5.2 0.00 0.00 0.00 64 1020.0
20260507030904 61 79 0.0 4.3 0.00 0.00 0.00 65 1020.0
20260507030403 61 68 0.9 6.1 0.00 0.00 0.00 64 1020.0
20260507024905 62 342 2.6 6.1 0.00 0.00 0.00 64 1020.0
20260507024404 62 327 0.0 5.2 0.00 0.00 0.00 64 1020.0
20260507023904 63 22 0.9 5.2 0.00 0.00 0.00 64 1020.0
20260507021904 64 26 0.9 4.3 0.00 0.00 0.00 64 1020.0
20260507021404 64 45 0.0 1.7 0.00 0.00 0.00 64 1020.0
20260507020904 64 333 0.0 1.7 0.00 0.00 0.00 64 1020.0
20260507020403 64 349 0.9 5.2 0.00 0.00 0.00 63 1020.0
20260507014904 65 354 4.3 6.1 0.00 0.00 0.00 63 1020.0
20260507014404 65 333 1.7 5.2 0.00 0.00 0.00 64 1020.0
20260507013903 65 310 1.7 5.2 0.00 0.00 0.00 64 1020.0
20260507013403 66 12 0.9 6.1 0.00 0.00 0.00 64 1020.0
20260507011904 66 306 0.9 2.6 0.00 0.00 0.00 63 1020.0
20260507010904 66 337 0.0 1.7 0.00 0.00 0.00 64 1020.0
20260507010403 66 310 0.9 4.3 0.00 0.00 0.00 63 1020.0
20260507004905 66 0 0.0 1.7 0.00 0.00 0.00 63 1020.0
20260507004404 66 38 0.9 1.7 0.00 0.00 0.00 63 1020.0
20260507003404 67 57 0.0 2.6 0.00 0.00 0.00 62 1020.0
20260507001904 67 338 0.0 1.7 0.00 0.00 0.00 63 1020.0
20260507001404 67 68 0.0 0.0 0.00 0.00 0.00 62 1020.0
20260507000904 67 248 0.0 2.6 0.00 0.00 0.00 61 1020.0
20260507000405 67 101 0.0 4.3 0.00 0.00 0.00 61 1020.0
20260506234904 69 244 0.0 1.7 0.00 0.00 0.00 60 1020.0
20260506234404 68 342 0.9 2.6 0.00 0.00 0.00 60 1020.0
20260506233904 69 235 0.9 4.3 0.00 0.00 0.00 60 1020.0
20260506233404 70 11 1.7 4.3 0.00 0.00 0.00 55 1020.0
20260506231904 67 131 0.0 0.0 0.00 0.00 0.00 64 1020.0
20260506231404 67 197 0.0 0.9 0.00 0.00 0.00 64 1020.0
20260506230903 67 124 0.0 0.0 0.00 0.00 0.00 63 1020.0
20260506230404 66 45 0.9 1.7 0.00 0.00 0.00 64 1020.0
20260506224903 67 26 0.9 2.6 0.00 0.00 0.00 62 1020.0
20260506224404 67 292 0.9 4.3 0.00 0.00 0.00 64 1021.0
20260506223904 67 311 0.0 4.3 0.00 0.00 0.00 64 1021.0
20260506223404 67 43 0.0 4.3 0.00 0.00 0.00 63 1021.0
20260506221404 67 146 0.9 2.6 0.00 0.00 0.00 62 1021.0
20260506220904 67 19 2.6 4.3 0.00 0.00 0.00 62 1021.0
20260506220404 68 197 0.9 6.1 0.00 0.00 0.00 61 1021.0
20260506214905 67 172 0.9 5.2 0.00 0.00 0.00 62 1021.0
20260506213904 66 180 0.9 2.6 0.00 0.00 0.00 64 1021.0
20260506213403 66 195 0.9 4.3 0.00 0.00 0.00 67 1021.0
20260506211904 65 248 0.9 2.6 0.00 0.00 0.00 67 1020.0
20260506211404 66 306 0.0 1.7 0.00 0.00 0.00 68 1021.0
20260506210904 65 302 0.9 2.6 0.00 0.00 0.00 68 1021.0
20260506210403 65 205 0.0 4.3 0.00 0.00 0.00 69 1021.0
20260506204905 64 232 1.7 4.3 0.00 0.00 0.00 69 1021.0
20260506204403 64 220 1.7 2.6 0.00 0.00 0.00 69 1021.0
20260506203904 64 256 3.5 6.1 0.00 0.00 0.00 68 1021.0
20260506203403 64 250 2.6 5.2 0.00 0.00 0.00 68 1021.0
20260506201903 63 253 0.9 4.3 0.00 0.00 0.00 70 1021.0
20260506201403 63 221 0.0 0.0 0.00 0.00 0.00 71 1021.0
20260506200904 63 224 2.6 4.3 0.00 0.00 0.00 70 1021.0
20260506194904 63 303 0.0 1.7 0.00 0.00 0.00 72 1020.0
20260506194404 62 344 0.0 2.6 0.00 0.00 0.00 72 1021.0
20260506193904 62 229 0.0 1.7 0.00 0.00 0.00 71 1021.0
20260506193404 63 282 0.9 1.7 0.00 0.00 0.00 71 1021.0
20260506191904 62 169 0.9 1.7 0.00 0.00 0.00 73 1020.0
20260506191403 62 243 0.9 2.6 0.00 0.00 0.00 73 1021.0
20260506190404 62 142 0.9 4.3 0.00 0.00 0.00 73 1021.0
20260506184904 61 249 1.7 4.3 0.00 0.00 0.00 73 1020.0
20260506184405 61 222 1.7 4.3 0.00 0.00 0.00 73 1021.0
20260506183903 61 331 0.9 4.3 0.00 0.00 0.00 74 1021.0
20260506183403 61 338 0.0 2.6 0.00 0.00 0.00 75 1021.0
20260506181403 60 280 0.0 1.7 0.00 0.00 0.00 76 1021.0
20260506180904 60 249 0.0 0.0 0.00 0.00 0.00 77 1021.0
20260506180404 60 348 0.0 1.7 0.00 0.00 0.00 77 1021.0
20260506174404 59 251 0.9 2.6 0.00 0.00 0.00 77 1021.0
20260506173903 59 245 1.7 4.3 0.00 0.00 0.00 78 1021.0
20260506173404 59 259 0.9 2.6 0.00 0.00 0.00 78 1021.0
20260506171903 59 210 0.0 0.0 0.00 0.00 0.00 77 1021.0
20260506171403 59 327 0.0 0.0 0.00 0.00 0.00 77 1021.0
20260506170904 59 203 0.0 0.0 0.00 0.00 0.00 77 1021.0
20260506170404 59 191 0.0 2.6 0.00 0.00 0.00 77 1021.0
20260506164904 59 220 0.9 2.6 0.00 0.00 0.00 76 1021.0
20260506163904 60 39 0.0 0.0 0.00 0.00 0.00 75 1021.0
20260506163404 59 248 0.0 2.6 0.00 0.00 0.00 75 1021.0
20260506161903 59 45 0.0 0.0 0.00 0.00 0.00 75 1021.0